�������C�����ː����j�^�v���󋵏��
Date,Time,Cs137(Bq/L),Cs134(Bq/L),�S��(Bq/L)
2018/05/19,00:00,0.13,ND,ND
2018/05/19,00:10,0.099,ND,ND
2018/05/19,00:20,0.11,ND,ND
2018/05/19,00:30,0.11,ND,ND
2018/05/19,00:40,0.092,ND,ND
2018/05/19,00:50,0.097,ND,ND
2018/05/19,01:00,0.091,ND,ND
2018/05/19,01:10,0.11,ND,ND
2018/05/19,01:20,0.095,ND,ND
2018/05/19,01:30,0.081,ND,ND
2018/05/19,01:40,0.087,ND,ND
2018/05/19,01:50,0.092,ND,ND
2018/05/19,02:00,0.094,ND,ND
2018/05/19,02:10,0.084,ND,ND
2018/05/19,02:20,0.088,ND,ND
2018/05/19,02:30,0.086,ND,ND
2018/05/19,02:40,0.096,ND,ND
2018/05/19,02:50,0.091,ND,ND
2018/05/19,03:00,0.092,ND,ND
2018/05/19,03:10,0.10,ND,ND
2018/05/19,03:20,0.092,ND,ND
2018/05/19,03:30,0.10,ND,ND
2018/05/19,03:40,0.11,ND,ND
2018/05/19,03:50,0.099,ND,ND
2018/05/19,04:00,0.11,ND,9.2
2018/05/19,04:10,0.10,ND,12
2018/05/19,04:20,0.10,ND,13
2018/05/19,04:30,0.12,ND,12
2018/05/19,04:40,0.10,ND,ND
2018/05/19,04:50,0.12,ND,10
2018/05/19,05:00,0.10,ND,8.8
2018/05/19,05:10,0.11,ND,ND
2018/05/19,05:20,0.11,ND,ND
2018/05/19,05:30,0.099,ND,ND
2018/05/19,05:40,0.11,ND,9.0
2018/05/19,05:50,0.099,ND,9.2
2018/05/19,06:00,0.11,ND,9.0
2018/05/19,06:10,0.099,ND,9.2
2018/05/19,06:20,0.11,ND,9.3
2018/05/19,06:30,0.088,ND,9.6
2018/05/19,06:40,0.086,ND,ND
2018/05/19,06:50,0.083,ND,ND
2018/05/19,07:00,0.082,ND,ND
2018/05/19,07:10,0.078,ND,10
2018/05/19,07:20,0.073,ND,12
2018/05/19,07:30,0.078,ND,12
2018/05/19,07:40,0.069,ND,8.8
2018/05/19,07:50,0.078,ND,ND
2018/05/19,08:00,0.098,ND,ND
2018/05/19,08:10,0.10,ND,ND
2018/05/19,08:20,0.12,ND,ND
2018/05/19,08:30,0.13,ND,ND
2018/05/19,08:40,0.13,ND,ND
2018/05/19,08:50,0.13,ND,ND
2018/05/19,09:00,0.11,ND,ND
2018/05/19,09:10,0.12,ND,ND
2018/05/19,09:20,0.11,ND,ND
2018/05/19,09:30,0.11,ND,ND
2018/05/19,09:40,0.12,ND,ND
2018/05/19,09:50,0.12,ND,ND
2018/05/19,10:00,0.12,ND,ND
2018/05/19,10:10,0.14,ND,ND
2018/05/19,10:20,0.13,ND,ND
2018/05/19,10:30,0.12,ND,ND
2018/05/19,10:40,0.12,ND,ND
2018/05/19,10:50,0.11,ND,ND
2018/05/19,11:00,0.11,ND,ND
2018/05/19,11:10,0.093,ND,ND
2018/05/19,11:20,0.093,ND,ND
2018/05/19,11:30,0.096,ND,8.9
2018/05/19,11:40,0.073,ND,12
2018/05/19,11:50,0.065,ND,9.6
2018/05/19,12:00,0.064,ND,9.2
2018/05/19,12:10,0.052,ND,ND
2018/05/19,12:20,0.048,ND,ND
2018/05/19,12:30,0.050,ND,ND
2018/05/19,12:40,0.068,ND,ND
2018/05/19,12:50,0.076,ND,ND
2018/05/19,13:00,0.084,ND,ND
2018/05/19,13:10,0.085,ND,ND
2018/05/19,13:20,0.076,ND,ND
2018/05/19,13:30,0.073,ND,ND
2018/05/19,13:40,0.068,ND,ND
2018/05/19,13:50,0.067,ND,ND
2018/05/19,14:00,0.063,ND,ND
2018/05/19,14:10,0.059,ND,12
2018/05/19,14:20,0.084,ND,14
2018/05/19,14:30,0.076,ND,13
2018/05/19,14:40,0.079,ND,10
2018/05/19,14:50,0.090,ND,11
2018/05/19,15:00,0.088,ND,9.2
2018/05/19,15:10,0.096,ND,ND
2018/05/19,15:20,0.085,ND,ND
2018/05/19,15:30,0.085,ND,9.2
2018/05/19,15:40,0.095,ND,11
2018/05/19,15:50,0.075,ND,11
2018/05/19,16:00,0.087,ND,8.9
2018/05/19,16:10,0.10,ND,8.9
2018/05/19,16:20,0.12,ND,9.3
2018/05/19,16:30,0.098,ND,10
2018/05/19,16:40,0.10,ND,ND
2018/05/19,16:50,0.12,ND,ND
2018/05/19,17:00,0.12,ND,ND
2018/05/19,17:10,0.10,ND,ND
2018/05/19,17:20,0.095,ND,ND
2018/05/19,17:30,0.10,ND,ND
2018/05/19,17:40,0.086,ND,ND
2018/05/19,17:50,0.086,ND,ND
2018/05/19,18:00,0.076,ND,ND
2018/05/19,18:10,0.064,ND,ND
2018/05/19,18:20,0.075,ND,ND
2018/05/19,18:30,0.061,ND,ND
2018/05/19,18:40,0.073,ND,ND
2018/05/19,18:50,0.064,ND,ND
2018/05/19,19:00,0.085,ND,ND
2018/05/19,19:10,0.095,ND,ND
2018/05/19,19:20,0.093,ND,ND
2018/05/19,19:30,0.12,ND,ND
2018/05/19,19:40,0.12,ND,ND
2018/05/19,19:50,0.13,ND,ND
2018/05/19,20:00,0.12,ND,ND
2018/05/19,20:10,0.13,ND,ND
2018/05/19,20:20,0.14,ND,ND
2018/05/19,20:30,0.15,ND,ND
2018/05/19,20:40,0.15,ND,ND
2018/05/19,20:50,0.14,ND,ND
2018/05/19,21:00,0.14,ND,ND
2018/05/19,21:10,0.12,ND,ND
2018/05/19,21:20,0.13,ND,ND
2018/05/19,21:30,0.11,ND,ND
2018/05/19,21:40,0.099,ND,ND
2018/05/19,21:50,0.10,ND,ND
2018/05/19,22:00,0.12,ND,ND
2018/05/19,22:10,0.12,ND,ND
2018/05/19,22:20,0.11,ND,ND
2018/05/19,22:30,0.099,ND,ND
2018/05/19,22:40,0.091,ND,ND
2018/05/19,22:50,0.098,ND,ND
2018/05/19,23:00,0.095,ND,ND
2018/05/19,23:10,0.099,ND,ND
2018/05/19,23:20,0.12,ND,ND
2018/05/19,23:30,0.13,ND,ND
2018/05/19,23:40,0.15,ND,ND
2018/05/19,23:50,0.14,ND,ND
